logo
Rechercher aéroport 
image banner adimage banner adimage banner ad
image banner ad

0CA6 - Emory Ranch

Situé à Ocotillo, United States

ICAO - 0CA6, IATA -

Données fournies par Airmate  

Information générale

Coordonnées: N32°44'58" W116°0'58"
Élévation : 480 feet MSL.
Variation magnétique : 13° East
Voir autres Aéroports à California

Données opérationnelles

Special qualification required
Heure actuelle UTC:
Heure actuelle locale:
Météo à : KNJK - El Centro Naf ( 34 km )
METAR: KNJK 261456Z COR 27005KT 10SM FEW250 31/15 A2983 RMK AO2 SLP118 T03060150 53013 $
TAF: TAF KNJK 2615/2715 VRB06KT 9999 SKC QNH2971INS T43/2623Z T28/2713Z FS30130
Voir NOTAMs / SUP AIP / TFR affectant cet aéroport [VIEW]
Fréquences de communication: [VIEW]

Pistes:

Identifiant RWYQFULongueur (ft)Largeur (ft)SurfaceLDA (ft)
04240040ASPH
22240040ASPH

Coordonnées de l'aéroport

Adresse: Ocotillo United States

Vue satellite de 0CA6